Regional Weather Roundup
Issued by NWS San Angelo, TX

Home | Current Version | Previous Version | Text Only | Print | Product List | Glossary On
Versions: 1 2 3 4 5 6 7 8 9 10 11 12 13 14 15 16 17 18 19 20 21 22 23 24 25 26 27 28 29 30 31 32 33 34 35 36 37 38 39 40 41 42 43 44 45 46 47 48 49 50
000
ASUS44 KSJT 050911
RWRSJT
WEST CENTRAL TEXAS REGIONAL WEATHER ROUNDUP
NATIONAL WEATHER SERVICE SAN ANGELO TX
400 AM CDT THU MAY 05 2016

NOTE: "FAIR" INDICATES FEW OR NO CLOUDS BELOW 12,000 FEET WITH NO
SIGNIFICANT WEATHER AND/OR OBSTRUCTIONS TO VISIBILITY.

TXZ049-054-064>066-071>073-076>078-098-099-113-114-127-128-139-140-
154-155-168>170-051000
...LOCATIONS ACROSS WEST CENTRAL TEXAS...

CITY           SKY/WX    TMP DP  RH WIND       PRES   REMARKS
SAN ANGELO     PTCLDY    50  42  74 SW3       30.08F
ABILENE        CLEAR     57  46  66 S8        30.08S
DYESS AFB      CLEAR     53  47  79 SW2       30.06S
JUNCTION       CLEAR     47  41  80 CALM      30.08F
SWEETWATER     CLEAR     62  42  47 SW12      30.12S
BROWNWOOD      CLEAR     50  48  93 CALM      30.07S
COLEMAN        SUNNY     53  47  79 W5        30.08S
SONORA         CLEAR     45  41  87 N3        30.13S
OZONA          FAIR      46  37  71 CALM      30.12S
BRADY          NOT AVBL
$$

TEXAS PANHANDLE/OKLAHOMA PANHANDLE

CITY           SKY/WX    TMP DP  RH WIND       PRES   REMARKS
AMARILLO       CLEAR     52  38  58 S8        30.13S
BORGER         CLEAR     54  41  61 CALM      30.12S
CANADIAN       CLEAR     46  44  93 CALM      30.10S
DALHART        CLEAR     47  38  71 CALM      30.15F
DUMAS          SUNNY     47  38  71 S8        30.14S
GUYMON         NOT AVBL
HEREFORD       SUNNY     44  38  79 W6        30.16S
PAMPA          SUNNY     51  43  73 S9        30.13S
PERRYTON       CLEAR     52  46  79 CALM      30.11S
$$

SOUTHERN PANHANDLE/SOUTH PLAINS/ROLLING PLAINS

CITY           SKY/WX    TMP DP  RH WIND       PRES   REMARKS
LUBBOCK        CLEAR     51  34  52 SW5       30.13S
SNYDER           N/A     56  40  55 SW7       30.12S
CHILDRESS      CLEAR     56  43  61 SE7       30.08S
SEMINOLE       SUNNY     51  33  49 CALM      30.14F
$$

PERMIAN BASIN

CITY           SKY/WX    TMP DP  RH WIND       PRES   REMARKS
MIDLAND        PTCLDY    55  33  43 SE3       30.10F
ODESSA         PTCLDY    60  31  33 SE8       30.11F
WINK           CLEAR     50  27  40 NE3       30.08F
$$

FAR WEST/SOUTHWEST MOUNTAINS/TRANS PECOS

CITY           SKY/WX    TMP DP  RH WIND       PRES   REMARKS
ALPINE         SUNNY     50  25  38 CALM      30.23F
DRYDEN           N/A     61  32  33 N7        30.07F
EL PASO        PTCLDY    66  20  17 N3        30.11F
FORT STOCKTON  CLEAR     63  32  31 S10       30.10F
GUADALUPE PASS CLEAR     61  21  21 NE13      30.22F
MARFA          CLEAR     44  22  41 N5        30.21F
PECOS          SUNNY     51  23  33 CALM      30.09S
$$

DALLAS/FORT WORTH METROPLEX

CITY           SKY/WX    TMP DP  RH WIND       PRES   REMARKS
DFW AIRPORT    CLEAR     61  51  70 N7        30.01S
FTW MEACHAM    CLEAR     61  51  70 W5        30.02R
DAL-EXECUTIVE  PTCLDY    60  51  72 N3        30.01R
GRAND PRAIRIE  CLEAR     63  51  64 N5        30.03S
ADDISON        CLEAR     64  49  57 NE3       30.03S
MESQUITE       SUNNY     60  51  73 N3        30.01S
LANCASTER      SUNNY     58  49  72 N7        30.02R
$$

NORTH CENTRAL TEXAS

CITY           SKY/WX    TMP DP  RH WIND       PRES   REMARKS
SHRMAN/DENISON SUNNY     53  45  73 CALM      30.03S
GAINESVILLE    CLEAR     57  44  61 N5        30.05S
BRIDGEPORT     SUNNY     53  53 100 SW5       30.06R
DENTON         CLEAR     53  50  89 N3        30.03R
WAXAHACHIE     MOSUNNY   59  52  77 N5        30.03R
GRANBURY         N/A     56  53  88 SW3       30.05R
$$

WESTERN NORTH TEXAS

CITY           SKY/WX    TMP DP  RH WIND       PRES   REMARKS
WICHITA FALLS  CLEAR     60  50  69 N3        30.05R
VERNON         SUNNY     56  45  67 CALM      30.07S
BRECKENRIDGE   SUNNY     57  51  79 SW3       30.05S
COMANCHE       CLEAR     62  48  60 SW12      30.05F
$$

CENTRAL AND SOUTH CENTRAL TEXAS

CITY           SKY/WX    TMP DP  RH WIND       PRES   REMARKS
AUSTIN/BERGSTM CLEAR     56  51  84 W3        30.02F
WACO           CLEAR     56  52  86 N6        30.03R
HILLSBORO      MOSUNNY   56  52  85 N5        30.02R
TEMPLE         CLEAR     57  54  89 CALM      30.02F
KILLEEN-GRAY   CLEAR     61  49  63 W1        30.02F
FORT HOOD      CLEAR     61  50  67 CALM      30.01S
GEORGETOWN     CLEAR     55  48  76 CALM      30.03F
LAGO VISTA     FAIR      66  47  51 W7        30.05F
SAN MARCOS     CLEAR     55  50  82 NW6       30.03F
NEW BRAUNFELS  PTCLDY    57  50  77 NW5       30.02S
RANDOLPH AFB   CLEAR     55  50  83 NW9       30.03S
SAN ANTONIO    CLEAR     58  48  69 NW7       30.04S
STINSON        CLEAR     62  51  67 N5        30.01F
PLEASANTON     NOT AVBL
LA GRANGE        N/A     59  56  91 CALM      29.99F
GIDDINGS       SUNNY     65  50  58 NW6       30.05S
$$

EAST TEXAS

CITY           SKY/WX    TMP DP  RH WIND       PRES   REMARKS
PARIS          CLEAR     55  41  58 N5        30.00S
CLARKSVILLE    NOT AVBL
TYLER          CLEAR     59  51  75 N5        29.99R
LONGVIEW       CLEAR     56  53  90 NW3       29.98R
PALESTINE      SUNNY     54  53  96 CALM      30.00S
NACOGDOCHES    CLEAR     54  52  94 N5        29.97R
$$

TEXAS HILL COUNTRY AND EDWARDS PLATEAU

CITY           SKY/WX    TMP DP  RH WIND       PRES   REMARKS
LLANO          SUNNY     52  48  87 CALM      30.10S
HORSESHOE BAY  FAIR      51  48  90 CALM      30.06S
KERRVILLE      CLEAR     49  46  89 CALM      30.07F
FREDERICKSBRG  CLEAR     49  45  87 CALM      30.07F
ROCKSPRINGS    SUNNY     57  37  47 CALM      30.10F
HONDO          CLEAR     54  46  74 N6        30.06S
UVALDE         SUNNY     56  46  70 NE6       30.04F
DEL RIO        CLEAR     62  44  51 NE6       30.02F
$$

SOUTHEAST TEXAS

CITY           SKY/WX    TMP DP  RH WIND       PRES   REMARKS
COLLEGE STN    CLEAR     61  55  81 CALM      29.99F
CALDWELL       SUNNY     59  52  77 CALM      30.03S
CROCKETT       SUNNY     55  54  94 CALM      30.01R
BRENHAM        CLEAR     60  57  91 CALM      30.00S
HUNTSVILLE     PTCLDY    63  53  70 SW3       29.98S
CONROE         CLEAR     54  53  97 CALM      29.98S
HOUSTON BUSH   CLEAR     61  56  83 W5        29.97F
HOUSTON HOBBY  PTCLDY    65  58  78 SW6       29.97F
PERLAND        PTCLDY    64  57  78 CALM      29.99S
WHARTON        SUNNY     62  59  91 W7        30.01S
$$

THE UPPER TEXAS COAST

CITY           SKY/WX    TMP DP  RH WIND       PRES   REMARKS
ORANGE         SUNNY     61  55  80 W3        29.96R
PORT ARTHUR    CLEAR     61  58  90 W6        29.94S
GALVESTON      CLEAR     69  61  75 W10       29.98S
ANGLETON       CLEAR     63  59  87 SW3       29.99S
BAY CITY       SUNNY     64  61  93 NW3       30.00S
$$

TEXAS COASTAL BEND, RIO GRANDE PLAINS DEEP SOUTH TEXAS

CITY           SKY/WX    TMP DP  RH WIND       PRES   REMARKS
VICTORIA       CLEAR     60  58  92 W6        30.01S
BEEVILLE       NOT AVBL
ROCKPORT       CLEAR     67  60  78 W7        30.00F
PORT ARANSAS   SUNNY     71  65  81 W8        30.00S
PORT LAVACA    SUNNY     61  59  94 W5        30.00F
CORPUS CHRISTI CLEAR     62  57  83 S5        30.01S
KINGSVILLE NAS CLEAR     60  58  92 S7        30.00F
COTULLA        CLEAR     67  47  48 S7        30.02S
LAREDO         CLEAR     67  52  58 SE8       30.02F
BROWNSVILLE    CLEAR     62  60  93 S5        30.02F
PORT ISABEL    CLEAR     63  61  93 SW7       30.00F
HEBBRONVILLE   SUNNY     63  53  69 SW6       30.03S
MCALLEN        CLEAR     66  60  81 S5        30.02F
WESLACO        CLEAR     65  60  84 S6        30.00F
FALFURRIAS     SUNNY     59  53  79 S3        30.00F
EDINBURG       SUNNY     67  60  78 CALM      30.02S
$$




USA.gov is the U.S. government's official web portal to all federal, state and local government web resources and services.